contact:dominique.lefevre@mio.osupytheas.fr, maurice.libes@osupytheas.fr, didier.mallarino@osupytheas.fr
Project:EMSO http://www.emso-fr.org/EMSO-France
Depth: 2436.0 m
Title:EMSO Ligure Ouest : Data MII capteur AQUADOPP
Date,Latitude,Longitude,X_East,Y_North,Z_Up,Amplitude_X,Amplitude_Y,Amplitude_Z,Batterie,SoundSpeed,Heading,Pitch,Roll,Pressure,TIS,Speed,Direction
, degrees North, degrees East, m.s-1, m.s-1,m.s-1, 1, 1, 1, Volt, m.s-1, degree, degree, degree, dbar, degree_C, m.s-1, degree
2023-08-02T00:04:03,42.805,6.029,-0.016,0.001,-0.007,104.0,104.0,102.0,13.3,1505.2,330.1,-0.8,1.8,2471.421,13.29,0.016,273.6
2023-08-02T00:07:03,42.805,6.029,0.0,0.001,0.0,104.0,104.0,102.0,13.4,1505.2,339.6,-0.8,1.8,2471.426,13.29,0.001,0.0
2023-08-02T00:10:03,42.805,6.029,-0.01,0.033,-0.019,104.0,104.0,102.0,13.4,1505.2,342.1,-0.8,1.8,2471.42,13.29,0.034,343.1
2023-08-02T00:13:03,42.805,6.029,-0.004,0.007,-0.015,105.0,103.0,103.0,13.3,1505.2,327.5,-0.8,1.8,2471.366,13.29,0.008,330.3
2023-08-02T00:16:03,42.805,6.029,0.007,0.003,-0.042,106.0,104.0,103.0,13.4,1505.2,346.5,-0.8,1.8,2471.345,13.29,0.007,66.8
2023-08-02T00:19:03,42.805,6.029,-0.026,-0.008,-0.045,105.0,104.0,101.0,13.4,1505.2,331.2,-0.8,1.8,2471.406,13.29,0.027,252.9
2023-08-02T00:22:03,42.805,6.029,-0.03,0.041,-0.023,104.0,104.0,102.0,13.4,1505.2,353.2,-0.8,1.8,2471.34,13.29,0.05,323.8
2023-08-02T00:25:03,42.805,6.029,-0.026,0.014,-0.016,105.0,104.0,102.0,13.4,1505.2,326.9,-0.8,1.8,2471.362,13.29,0.029,298.3
2023-08-02T00:28:03,42.805,6.029,-0.02,-0.006,-0.023,104.0,105.0,103.0,13.3,1505.2,328.5,-0.8,1.8,2471.359,13.29,0.02,253.3
2023-08-02T00:31:03,42.805,6.029,-0.02,0.01,-0.013,105.0,104.0,102.0,13.4,1505.2,337.1,-0.8,1.8,2471.357,13.29,0.022,296.6
2023-08-02T00:34:03,42.805,6.029,-0.02,0.007,-0.05,105.0,105.0,103.0,13.3,1505.2,336.6,-0.7,1.8,2471.394,13.29,0.021,289.3
2023-08-02T00:37:03,42.805,6.029,0.006,0.005,-0.02,106.0,104.0,103.0,13.3,1505.2,330.9,-0.8,1.8,2471.33,13.29,0.007,50.2
2023-08-02T00:40:03,42.805,6.029,-0.004,0.01,-0.022,105.0,105.0,102.0,13.4,1505.2,335.6,-0.8,1.9,2471.339,13.29,0.01,338.2
2023-08-02T00:43:03,42.805,6.029,0.003,0.021,-0.026,104.0,105.0,102.0,13.4,1505.2,353.0,-0.8,1.8,2471.35,13.29,0.021,8.1
2023-08-02T00:46:03,42.805,6.029,-0.002,0.016,-0.04,104.0,104.0,103.0,13.3,1505.2,351.8,-0.8,1.8,2471.346,13.29,0.016,352.9
2023-08-02T00:49:03,42.805,6.029,-0.008,0.003,-0.016,105.0,104.0,103.0,13.4,1505.2,343.7,-0.7,1.8,2471.343,13.29,0.008,290.6
2023-08-02T00:52:03,42.805,6.029,-0.013,0.005,-0.005,105.0,105.0,102.0,13.4,1505.2,343.7,-0.8,1.8,2471.335,13.29,0.013,291.0
2023-08-02T00:55:03,42.805,6.029,-0.032,0.026,0.002,104.0,103.0,103.0,13.4,1505.2,341.5,-0.8,1.8,2471.349,13.29,0.041,309.1
2023-08-02T00:58:03,42.805,6.029,-0.018,0.031,-0.014,103.0,104.0,103.0,13.4,1505.2,336.3,-0.8,1.8,2471.333,13.29,0.035,329.9
2023-08-02T01:04:03,42.805,6.029,-0.02,0.005,-0.018,105.0,105.0,104.0,13.3,1505.2,349.6,-0.8,1.8,2471.363,13.29,0.02,284.0
2023-08-02T01:07:03,42.805,6.029,-0.022,-0.007,-0.012,104.0,104.0,103.0,13.4,1505.2,340.0,-0.8,1.8,2471.329,13.29,0.023,252.4
2023-08-02T01:10:03,42.805,6.029,-0.015,0.029,-0.019,102.0,104.0,103.0,13.4,1505.2,346.2,-0.7,1.8,2471.37,13.29,0.032,332.6
2023-08-02T01:13:03,42.805,6.029,-0.004,0.006,0.005,103.0,105.0,103.0,13.4,1505.2,350.5,-0.8,1.8,2471.327,13.29,0.007,326.3
2023-08-02T01:16:03,42.805,6.029,0.001,0.017,-0.009,105.0,104.0,103.0,13.4,1505.2,355.6,-0.7,1.8,2471.363,13.29,0.017,3.4
2023-08-02T01:19:03,42.805,6.029,0.002,0.013,-0.004,104.0,104.0,101.0,13.4,1505.2,352.1,-0.8,1.9,2471.36,13.29,0.013,8.7
2023-08-02T01:22:03,42.805,6.029,0.003,0.02,0.002,103.0,106.0,102.0,13.4,1505.2,347.9,-0.8,1.8,2471.346,13.29,0.02,8.5
2023-08-02T01:25:03,42.805,6.029,-0.024,0.027,-0.026,104.0,103.0,102.0,13.3,1505.2,341.9,-0.8,1.8,2471.342,13.29,0.036,318.4
2023-08-02T01:28:03,42.805,6.029,0.002,0.014,-0.028,103.0,104.0,102.0,13.4,1505.2,335.8,-0.7,1.8,2471.301,13.29,0.014,8.1
2023-08-02T01:31:03,42.805,6.029,0.004,0.004,-0.004,105.0,103.0,102.0,13.4,1505.2,345.9,-0.8,1.9,2471.315,13.29,0.005,45.0
2023-08-02T01:34:03,42.805,6.029,-0.014,0.033,-0.022,105.0,104.0,101.0,13.3,1505.2,345.6,-0.7,1.8,2471.294,13.29,0.035,337.0
2023-08-02T01:37:03,42.805,6.029,-0.021,0.009,-0.023,104.0,104.0,103.0,13.4,1505.2,335.5,-0.8,1.8,2471.29,13.29,0.022,293.2
2023-08-02T01:40:03,42.805,6.029,-0.014,0.019,-0.018,104.0,105.0,102.0,13.4,1505.2,344.5,-0.8,1.8,2471.335,13.29,0.023,323.6
2023-08-02T01:43:03,42.805,6.029,0.01,0.024,0.008,104.0,104.0,102.0,13.4,1505.2,347.6,-0.8,1.8,2471.303,13.29,0.026,22.6
2023-08-02T01:46:03,42.805,6.029,-0.002,0.025,-0.033,105.0,103.0,103.0,13.4,1505.2,342.4,-0.7,1.8,2471.292,13.29,0.025,355.4
2023-08-02T01:49:03,42.805,6.029,-0.018,0.019,-0.032,105.0,105.0,102.0,13.3,1505.2,324.5,-0.8,1.8,2471.306,13.29,0.026,316.5
2023-08-02T01:52:03,42.805,6.029,-0.026,0.032,0.014,102.0,105.0,102.0,13.4,1505.2,345.1,-0.8,1.8,2471.321,13.29,0.041,320.9
2023-08-02T01:55:03,42.805,6.029,-0.011,0.041,-0.045,103.0,105.0,102.0,13.4,1505.2,352.0,-0.8,1.8,2471.319,13.29,0.042,345.0
2023-08-02T01:58:03,42.805,6.029,-0.006,0.015,-0.021,104.0,104.0,103.0,13.4,1505.2,326.3,-0.8,1.8,2471.267,13.29,0.016,338.2
2023-08-02T02:04:03,42.805,6.029,-0.018,0.03,-0.017,104.0,103.0,101.0,13.3,1505.2,351.8,-0.8,1.8,2471.351,13.29,0.034,329.0
2023-08-02T02:07:03,42.805,6.029,-0.024,0.02,-0.037,104.0,102.0,103.0,13.4,1505.2,335.9,-0.8,1.8,2471.376,13.29,0.031,309.8
2023-08-02T02:10:03,42.805,6.029,0.008,0.018,-0.046,104.0,103.0,101.0,13.4,1505.2,324.3,-0.7,1.9,2471.359,13.29,0.019,24.0
2023-08-02T02:13:03,42.805,6.029,-0.018,0.02,-0.013,104.0,103.0,102.0,13.4,1505.2,321.7,-0.8,1.8,2471.351,13.29,0.026,318.0
2023-08-02T02:16:03,42.805,6.029,0.008,0.008,0.02,104.0,104.0,102.0,13.4,1505.2,325.7,-0.8,1.8,2471.3,13.29,0.011,45.0
2023-08-02T02:19:03,42.805,6.029,-0.007,0.019,-0.013,104.0,103.0,103.0,13.4,1505.2,347.0,-0.8,1.8,2471.295,13.29,0.02,339.8
2023-08-02T02:22:03,42.805,6.029,-0.018,0.027,-0.021,104.0,102.0,103.0,13.3,1505.2,346.2,-0.7,1.8,2471.285,13.29,0.032,326.3
2023-08-02T02:25:03,42.805,6.029,-0.002,0.019,-0.023,104.0,103.0,103.0,13.3,1505.2,322.3,-0.8,1.8,2471.301,13.29,0.019,354.0
2023-08-02T02:28:03,42.805,6.029,-0.006,0.001,-0.022,106.0,103.0,103.0,13.4,1505.2,330.7,-0.8,1.8,2471.319,13.29,0.006,279.5
2023-08-02T02:31:03,42.805,6.029,-0.021,0.012,-0.024,105.0,103.0,101.0,13.4,1505.2,332.9,-0.8,1.8,2471.273,13.29,0.024,299.7
2023-08-02T02:34:03,42.805,6.029,-0.015,0.027,-0.004,104.0,104.0,102.0,13.3,1505.2,334.3,-0.7,1.8,2471.315,13.29,0.03,330.9
2023-08-02T02:37:03,42.805,6.029,-0.007,0.017,-0.008,104.0,104.0,102.0,13.4,1505.2,345.9,-0.8,1.8,2471.335,13.29,0.018,337.6
2023-08-02T02:40:03,42.805,6.029,-0.02,0.015,-0.015,104.0,104.0,101.0,13.4,1505.2,323.4,-0.7,1.8,2471.308,13.29,0.025,306.9
2023-08-02T02:43:03,42.805,6.029,-0.013,0.01,-0.027,104.0,104.0,101.0,13.4,1505.2,336.4,-0.8,1.8,2471.279,13.29,0.016,307.6
2023-08-02T02:46:03,42.805,6.029,-0.027,0.012,0.006,102.0,104.0,102.0,13.4,1505.2,332.9,-0.8,1.8,2471.316,13.29,0.029,294.0
2023-08-02T02:49:03,42.805,6.029,-0.017,0.017,-0.024,104.0,103.0,101.0,13.3,1505.2,323.8,-0.7,1.8,2471.314,13.29,0.024,315.0
2023-08-02T02:52:03,42.805,6.029,-0.017,0.025,-0.035,104.0,104.0,103.0,13.3,1505.2,346.2,-0.8,1.8,2471.314,13.29,0.03,325.8
2023-08-02T02:55:03,42.805,6.029,-0.023,0.007,-0.044,104.0,101.0,103.0,13.3,1505.2,332.1,-0.8,1.9,2471.275,13.29,0.024,286.9
2023-08-02T02:58:03,42.805,6.029,-0.009,0.022,-0.032,103.0,104.0,101.0,13.4,1505.2,340.1,-0.8,1.8,2471.323,13.29,0.023,337.8
2023-08-02T03:04:03,42.805,6.029,-0.029,0.034,-0.034,103.0,103.0,102.0,13.4,1505.2,324.9,-0.8,1.8,2471.356,13.29,0.044,319.5
2023-08-02T03:07:03,42.805,6.029,0.012,-0.004,-0.027,103.0,103.0,102.0,13.4,1505.2,332.9,-0.8,1.8,2471.335,13.29,0.012,108.4
2023-08-02T03:10:03,42.805,6.029,0.0,0.036,-0.021,103.0,104.0,102.0,13.3,1505.2,351.5,-0.8,1.8,2471.333,13.29,0.036,0.0
2023-08-02T03:13:03,42.805,6.029,-0.022,0.022,-0.003,103.0,102.0,102.0,13.4,1505.2,352.8,-0.7,1.8,2471.306,13.29,0.031,315.0
2023-08-02T03:16:03,42.805,6.029,-0.004,0.003,-0.002,104.0,103.0,101.0,13.3,1505.2,349.9,-0.7,1.8,2471.343,13.29,0.005,306.9
2023-08-02T03:19:03,42.805,6.029,-0.012,0.027,-0.02,104.0,103.0,102.0,13.4,1505.2,340.3,-0.7,1.8,2471.334,13.29,0.029,336.0
2023-08-02T03:22:03,42.805,6.029,-0.035,0.012,-0.022,103.0,103.0,102.0,13.4,1505.2,322.3,-0.8,1.8,2471.307,13.29,0.037,288.9
2023-08-02T03:25:03,42.805,6.029,-0.021,0.018,-0.008,104.0,104.0,101.0,13.4,1505.2,333.8,-0.7,1.8,2471.27,13.29,0.027,310.6
2023-08-02T03:28:03,42.805,6.029,-0.01,0.0,-0.03,103.0,103.0,102.0,13.4,1505.2,326.8,-0.7,1.8,2471.346,13.29,0.01,270.0
2023-08-02T03:31:03,42.805,6.029,0.0,0.029,-0.004,104.0,104.0,102.0,13.3,1505.2,339.5,-0.7,1.9,2471.288,13.29,0.028,0.0
2023-08-02T03:34:03,42.805,6.029,-0.005,0.022,-0.028,104.0,104.0,102.0,13.4,1505.2,344.5,-0.8,1.8,2471.338,13.29,0.022,347.2
2023-08-02T03:37:03,42.805,6.029,-0.016,0.025,-0.003,103.0,103.0,102.0,13.3,1505.2,331.3,-0.8,1.8,2471.323,13.29,0.029,327.4
2023-08-02T03:40:03,42.805,6.029,-0.012,0.016,-0.011,103.0,103.0,102.0,13.4,1505.2,341.5,-0.8,1.8,2471.304,13.29,0.02,323.1
2023-08-02T03:43:03,42.805,6.029,-0.012,0.028,-0.018,106.0,103.0,102.0,13.3,1505.2,326.8,-0.8,1.8,2471.279,13.29,0.03,336.8
2023-08-02T03:46:03,42.805,6.029,-0.009,0.028,-0.054,104.0,103.0,101.0,13.4,1505.2,342.7,-0.7,1.8,2471.302,13.29,0.029,342.2
2023-08-02T03:49:03,42.805,6.029,0.014,0.036,-0.012,105.0,104.0,101.0,13.3,1505.2,345.3,-0.7,1.8,2471.347,13.29,0.038,21.2
2023-08-02T03:52:03,42.805,6.029,-0.028,0.036,-0.01,104.0,103.0,102.0,13.4,1505.2,330.6,-0.7,1.8,2471.309,13.29,0.045,322.1
2023-08-02T03:55:03,42.805,6.029,-0.018,0.03,0.001,105.0,103.0,102.0,13.4,1505.2,351.4,-0.8,1.8,2471.33,13.29,0.034,329.0
2023-08-02T03:58:03,42.805,6.029,0.0,0.025,-0.009,103.0,103.0,102.0,13.4,1505.2,353.7,-0.7,1.8,2471.34,13.29,0.025,0.0
2023-08-02T04:04:03,42.805,6.029,-0.009,0.029,-0.046,103.0,103.0,102.0,13.3,1505.2,327.7,-0.7,1.8,2471.36,13.29,0.03,342.8
2023-08-02T04:07:03,42.805,6.029,0.011,0.022,-0.02,103.0,103.0,102.0,13.4,1505.2,331.0,-0.8,1.8,2471.372,13.29,0.024,26.6
2023-08-02T04:10:03,42.805,6.029,0.006,-0.004,-0.025,104.0,103.0,101.0,13.4,1505.2,349.9,-0.8,1.8,2471.379,13.29,0.007,123.7
2023-08-02T04:13:03,42.805,6.029,0.002,0.03,0.007,102.0,103.0,102.0,13.4,1505.2,329.8,-0.8,1.8,2471.361,13.29,0.03,3.8
2023-08-02T04:16:03,42.805,6.029,0.009,0.015,-0.039,103.0,103.0,103.0,13.4,1505.2,345.7,-0.8,1.8,2471.333,13.29,0.017,31.0
2023-08-02T04:19:03,42.805,6.029,-0.012,0.021,-0.027,104.0,102.0,102.0,13.4,1505.2,352.1,-0.8,1.8,2471.368,13.29,0.024,330.3
2023-08-02T04:22:03,42.805,6.029,-0.013,-0.002,-0.032,101.0,104.0,101.0,13.3,1505.2,323.7,-0.8,1.9,2471.36,13.29,0.013,261.3
2023-08-02T04:25:03,42.805,6.029,0.0,0.021,-0.026,102.0,103.0,102.0,13.3,1505.2,344.5,-0.8,1.8,2471.341,13.29,0.021,0.0
2023-08-02T04:28:03,42.805,6.029,0.014,0.012,-0.029,104.0,102.0,101.0,13.4,1505.2,352.8,-0.7,1.8,2471.364,13.29,0.018,49.4
2023-08-02T04:31:03,42.805,6.029,0.013,0.02,-0.007,103.0,103.0,101.0,13.4,1505.2,326.3,-0.7,1.8,2471.384,13.29,0.023,33.0
2023-08-02T04:34:03,42.805,6.029,-0.004,0.014,-0.01,103.0,103.0,102.0,13.4,1505.2,344.8,-0.8,1.8,2471.37,13.29,0.014,344.1
2023-08-02T04:37:03,42.805,6.029,0.012,0.014,-0.034,103.0,102.0,102.0,13.4,1505.2,337.4,-0.8,1.8,2471.319,13.29,0.018,40.6
2023-08-02T04:40:03,42.805,6.029,-0.003,0.019,0.0,102.0,103.0,101.0,13.4,1505.2,326.0,-0.8,1.8,2471.354,13.29,0.019,351.0
2023-08-02T04:43:03,42.805,6.029,0.0,0.034,-0.031,104.0,103.0,101.0,13.4,1505.2,350.3,-0.8,1.8,2471.369,13.29,0.034,0.0
2023-08-02T04:46:03,42.805,6.029,-0.003,0.02,-0.036,102.0,103.0,102.0,13.4,1505.2,327.9,-0.7,1.8,2471.374,13.29,0.02,351.5
2023-08-02T04:49:03,42.805,6.029,-0.024,0.012,-0.014,104.0,102.0,101.0,13.4,1505.2,333.4,-0.8,1.8,2471.363,13.29,0.026,296.6
2023-08-02T04:52:03,42.805,6.029,0.0,0.028,-0.002,102.0,104.0,102.0,13.4,1505.2,332.9,-0.8,1.8,2471.389,13.29,0.028,0.0
2023-08-02T04:55:03,42.805,6.029,0.008,0.021,-0.016,103.0,103.0,102.0,13.4,1505.2,350.3,-0.8,1.8,2471.363,13.29,0.022,20.9
2023-08-02T04:58:03,42.805,6.029,-0.004,0.02,-0.014,104.0,104.0,101.0,13.4,1505.2,324.2,-0.8,1.8,2471.373,13.29,0.02,348.7
2023-08-02T05:04:03,42.805,6.029,-0.005,0.022,0.004,103.0,103.0,103.0,13.4,1505.2,344.9,-0.7,1.8,2471.414,13.29,0.022,347.2
2023-08-02T05:07:03,42.805,6.029,-0.006,0.018,-0.002,104.0,103.0,102.0,13.3,1505.2,346.2,-0.8,1.8,2471.397,13.29,0.018,341.6
2023-08-02T05:10:03,42.805,6.029,0.0,0.004,0.014,103.0,103.0,102.0,13.3,1505.2,333.4,-0.7,1.8,2471.42,13.29,0.004,0.0
2023-08-02T05:13:03,42.805,6.029,-0.008,0.019,0.003,103.0,102.0,101.0,13.3,1505.2,341.5,-0.8,1.8,2471.399,13.29,0.02,337.2
2023-08-02T05:16:03,42.805,6.029,-0.001,0.021,-0.042,105.0,103.0,101.0,13.3,1505.2,344.6,-0.8,1.8,2471.443,13.29,0.021,357.3
2023-08-02T05:19:03,42.805,6.029,-0.01,0.017,-0.027,103.0,103.0,102.0,13.3,1505.2,346.5,-0.8,1.8,2471.396,13.29,0.019,329.5
2023-08-02T05:22:03,42.805,6.029,-0.01,0.012,-0.046,102.0,103.0,102.0,13.4,1505.2,352.0,-0.8,1.8,2471.398,13.29,0.015,320.2
2023-08-02T05:25:03,42.805,6.029,0.002,0.044,0.0,104.0,102.0,102.0,13.3,1505.2,322.5,-0.8,1.8,2471.407,13.29,0.044,2.6
2023-08-02T05:28:03,42.805,6.029,-0.004,0.032,-0.017,104.0,102.0,101.0,13.3,1505.2,326.8,-0.8,1.8,2471.417,13.29,0.032,352.9
2023-08-02T05:31:03,42.805,6.029,-0.01,0.037,-0.02,104.0,104.0,100.0,13.3,1505.2,341.2,-0.7,1.8,2471.405,13.29,0.038,344.9
2023-08-02T05:34:03,42.805,6.029,-0.01,0.029,-0.026,103.0,103.0,102.0,13.3,1505.2,335.9,-0.8,1.8,2471.394,13.29,0.03,341.0
2023-08-02T05:37:03,42.805,6.029,0.006,0.007,-0.049,103.0,103.0,101.0,13.4,1505.2,336.0,-0.8,1.8,2471.409,13.29,0.009,40.6
2023-08-02T05:40:03,42.805,6.029,0.001,0.029,0.019,105.0,103.0,102.0,13.3,1505.2,335.5,-0.8,1.8,2471.424,13.29,0.029,2.0
2023-08-02T05:43:03,42.805,6.029,0.005,0.016,0.015,104.0,101.0,102.0,13.3,1505.2,336.1,-0.8,1.8,2471.393,13.29,0.016,17.4
2023-08-02T05:46:03,42.805,6.029,-0.002,0.002,-0.036,103.0,102.0,100.0,13.3,1505.2,351.5,-0.8,1.8,2471.447,13.29,0.002,315.0
2023-08-02T05:49:03,42.805,6.029,-0.014,0.015,-0.011,102.0,102.0,101.0,13.3,1505.2,325.2,-0.8,1.8,2471.406,13.29,0.02,317.0
2023-08-02T05:52:03,42.805,6.029,-0.034,0.029,-0.016,101.0,104.0,101.0,13.4,1505.2,328.3,-0.8,1.8,2471.378,13.29,0.044,310.5
2023-08-02T05:55:03,42.805,6.029,-0.004,0.037,0.008,105.0,102.0,101.0,13.3,1505.2,344.5,-0.8,1.8,2471.404,13.29,0.037,353.8
2023-08-02T05:58:03,42.805,6.029,-0.021,0.017,-0.022,104.0,102.0,101.0,13.3,1505.2,332.9,-0.8,1.8,2471.409,13.29,0.027,309.0
2023-08-02T06:04:03,42.805,6.029,-0.024,0.021,0.001,103.0,102.0,101.0,13.3,1505.2,332.9,-0.7,1.8,2471.506,13.29,0.031,311.2
2023-08-02T06:07:03,42.805,6.029,-0.001,0.012,0.0,103.0,103.0,101.0,13.4,1505.2,332.9,-0.8,1.8,2471.477,13.29,0.012,355.2
2023-08-02T06:10:03,42.805,6.029,-0.021,0.017,-0.043,103.0,102.0,101.0,13.4,1505.2,334.9,-0.7,1.9,2471.451,13.29,0.027,309.0
2023-08-02T06:13:03,42.805,6.029,-0.009,0.033,-0.021,103.0,103.0,101.0,13.4,1505.2,347.7,-0.8,1.8,2471.459,13.29,0.034,344.7
2023-08-02T06:16:03,42.805,6.029,0.009,0.031,0.009,102.0,102.0,103.0,13.4,1505.2,338.8,-0.8,1.8,2471.447,13.29,0.032,16.2
2023-08-02T06:19:03,42.805,6.029,-0.013,0.016,-0.028,103.0,102.0,102.0,13.3,1505.2,338.9,-0.8,1.8,2471.437,13.29,0.02,320.9
2023-08-02T06:22:03,42.805,6.029,-0.011,0.005,-0.018,102.0,103.0,102.0,13.3,1505.2,335.5,-0.8,1.8,2471.46,13.29,0.012,294.4
2023-08-02T06:25:03,42.805,6.029,-0.006,0.013,-0.006,102.0,104.0,101.0,13.3,1505.2,351.7,-0.8,1.8,2471.438,13.29,0.014,335.2
2023-08-02T06:28:03,42.805,6.029,-0.021,0.013,-0.056,102.0,103.0,101.0,13.4,1505.2,336.0,-0.8,1.8,2471.437,13.29,0.024,301.8
2023-08-02T06:31:03,42.805,6.029,0.011,0.022,-0.003,104.0,103.0,102.0,13.3,1505.2,340.1,-0.8,1.8,2471.441,13.29,0.024,26.6
2023-08-02T06:34:03,42.805,6.029,-0.015,0.005,-0.003,103.0,103.0,100.0,13.4,1505.2,327.3,-0.7,1.8,2471.455,13.29,0.015,288.4
2023-08-02T06:37:03,42.805,6.029,-0.012,0.01,-0.022,102.0,102.0,102.0,13.3,1505.2,337.2,-0.7,1.8,2471.427,13.29,0.015,309.8
2023-08-02T06:40:03,42.805,6.029,0.021,0.014,-0.012,103.0,103.0,102.0,13.4,1505.2,346.9,-0.8,1.8,2471.417,13.29,0.025,56.3
2023-08-02T06:43:03,42.805,6.029,-0.012,0.004,-0.029,102.0,102.0,102.0,13.3,1505.2,336.6,-0.8,1.8,2471.448,13.29,0.012,288.4
2023-08-02T06:46:03,42.805,6.029,0.016,0.014,-0.004,105.0,102.0,102.0,13.4,1505.2,341.9,-0.8,1.8,2471.437,13.29,0.021,48.8
2023-08-02T06:49:03,42.805,6.029,0.01,0.015,0.01,102.0,103.0,101.0,13.4,1505.2,330.6,-0.8,1.8,2471.465,13.29,0.018,33.7
2023-08-02T06:52:03,42.805,6.029,-0.004,0.041,-0.006,104.0,103.0,100.0,13.4,1505.2,351.3,-0.8,1.8,2471.503,13.29,0.041,354.4
2023-08-02T06:55:03,42.805,6.029,-0.006,0.019,-0.004,103.0,103.0,101.0,13.4,1505.2,345.7,-0.8,1.9,2471.458,13.29,0.019,342.5
2023-08-02T06:58:03,42.805,6.029,-0.024,0.022,-0.015,102.0,104.0,102.0,13.3,1505.2,341.1,-0.8,1.8,2471.447,13.29,0.032,312.5
2023-08-02T07:04:03,42.805,6.029,-0.003,0.023,-0.018,102.0,103.0,101.0,13.3,1505.2,341.5,-0.8,1.8,2471.501,13.29,0.023,352.6
2023-08-02T07:07:03,42.805,6.029,-0.01,0.011,-0.047,103.0,103.0,101.0,13.4,1505.2,336.3,-0.8,1.8,2471.517,13.29,0.014,317.7
2023-08-02T07:10:03,42.805,6.029,-0.001,0.011,0.005,102.0,103.0,101.0,13.4,1505.2,324.9,-0.7,1.8,2471.46,13.29,0.011,354.8
2023-08-02T07:13:03,42.805,6.029,-0.015,0.034,-0.015,102.0,101.0,102.0,13.4,1505.2,343.4,-0.8,1.8,2471.447,13.29,0.037,336.2
2023-08-02T07:16:03,42.805,6.029,-0.019,0.009,-0.037,103.0,103.0,101.0,13.4,1505.2,343.0,-0.8,1.8,2471.471,13.29,0.021,295.3
2023-08-02T07:19:03,42.805,6.029,-0.019,0.032,-0.007,105.0,103.0,100.0,13.3,1505.2,329.8,-0.8,1.8,2471.464,13.29,0.037,329.3
2023-08-02T07:22:03,42.805,6.029,-0.017,0.012,-0.024,102.0,102.0,101.0,13.4,1505.2,328.3,-0.8,1.8,2471.461,13.29,0.02,305.2
2023-08-02T07:25:03,42.805,6.029,-0.005,0.023,-0.021,103.0,103.0,101.0,13.4,1505.2,343.8,-0.8,1.8,2471.45,13.29,0.023,347.7
2023-08-02T07:28:03,42.805,6.029,-0.024,0.016,-0.041,103.0,103.0,101.0,13.3,1505.2,321.4,-0.8,1.8,2471.454,13.29,0.028,303.7
2023-08-02T07:31:03,42.805,6.029,-0.004,0.016,0.0,103.0,101.0,102.0,13.3,1505.2,346.7,-0.8,1.8,2471.424,13.29,0.016,346.0
2023-08-02T07:34:03,42.805,6.029,-0.015,0.007,-0.004,102.0,102.0,103.0,13.3,1505.2,347.6,-0.7,1.8,2471.436,13.29,0.016,295.0
2023-08-02T07:37:03,42.805,6.029,-0.013,0.015,-0.015,103.0,101.0,104.0,13.4,1505.2,331.2,-0.7,1.8,2471.434,13.29,0.019,319.1
2023-08-02T07:40:03,42.805,6.029,-0.02,0.019,-0.016,102.0,102.0,102.0,13.4,1505.2,338.0,-0.8,1.8,2471.459,13.29,0.027,313.5
2023-08-02T07:43:03,42.805,6.029,-0.021,0.024,-0.017,102.0,103.0,101.0,13.4,1505.2,342.9,-0.8,1.8,2471.421,13.29,0.031,318.8
2023-08-02T07:46:03,42.805,6.029,-0.023,0.022,-0.018,103.0,103.0,101.0,13.4,1505.2,340.3,-0.8,1.8,2471.424,13.29,0.031,313.7
2023-08-02T07:49:03,42.805,6.029,-0.014,0.019,-0.017,104.0,102.0,100.0,13.4,1505.2,341.5,-0.8,1.8,2471.448,13.29,0.023,323.6
2023-08-02T07:52:03,42.805,6.029,-0.019,0.003,-0.065,102.0,103.0,100.0,13.3,1505.2,342.2,-0.7,1.8,2471.439,13.29,0.019,279.0
2023-08-02T07:55:03,42.805,6.029,-0.011,0.045,0.008,103.0,103.0,101.0,13.4,1505.2,327.8,-0.7,1.8,2471.419,13.29,0.046,346.3
2023-08-02T07:58:03,42.805,6.029,-0.013,0.004,-0.023,103.0,102.0,102.0,13.3,1505.2,343.3,-0.7,1.8,2471.425,13.29,0.013,287.1
2023-08-02T08:04:03,42.805,6.029,-0.012,0.013,-0.02,103.0,103.0,101.0,13.4,1505.2,333.9,-0.8,1.8,2471.455,13.29,0.017,317.3
2023-08-02T08:07:03,42.805,6.029,-0.031,0.016,-0.013,103.0,103.0,101.0,13.3,1505.2,322.3,-0.7,1.8,2471.459,13.29,0.034,297.3
2023-08-02T08:10:03,42.805,6.029,-0.014,0.027,0.009,102.0,103.0,101.0,13.4,1505.2,331.6,-0.7,1.8,2471.489,13.29,0.03,332.6
2023-08-02T08:13:03,42.805,6.029,0.015,0.013,-0.015,101.0,103.0,101.0,13.4,1505.2,354.4,-0.8,1.8,2471.45,13.29,0.019,49.1
2023-08-02T08:16:03,42.805,6.029,0.0,0.016,0.012,104.0,104.0,100.0,13.4,1505.2,329.5,-0.8,1.8,2471.482,13.29,0.016,0.0
2023-08-02T08:19:03,42.805,6.029,-0.005,0.039,-0.005,102.0,103.0,102.0,13.4,1505.2,334.3,-0.8,1.8,2471.454,13.29,0.039,352.7
2023-08-02T08:22:03,42.805,6.029,-0.009,0.02,0.0,101.0,103.0,102.0,13.4,1505.2,351.7,-0.8,1.8,2471.479,13.29,0.021,335.8
2023-08-02T08:25:03,42.805,6.029,-0.008,0.004,-0.024,103.0,102.0,101.0,13.3,1505.2,332.1,-0.8,1.8,2471.449,13.29,0.008,296.6
2023-08-02T08:28:03,42.805,6.029,-0.016,0.014,-0.012,102.0,102.0,101.0,13.3,1505.2,327.2,-0.8,1.8,2471.438,13.29,0.021,311.2
2023-08-02T08:31:03,42.805,6.029,-0.002,0.034,-0.003,103.0,102.0,101.0,13.4,1505.2,343.3,-0.8,1.8,2471.434,13.29,0.034,356.6
2023-08-02T08:34:03,42.805,6.029,-0.024,0.023,0.004,102.0,102.0,102.0,13.4,1505.2,332.5,-0.8,1.8,2471.43,13.29,0.033,313.8
2023-08-02T08:37:03,42.805,6.029,0.004,0.027,-0.005,103.0,101.0,102.0,13.4,1505.2,350.1,-0.8,1.8,2471.416,13.29,0.027,8.4
2023-08-02T08:40:03,42.805,6.029,-0.007,0.0,-0.03,102.0,103.0,101.0,13.4,1505.2,328.3,-0.8,1.8,2471.425,13.29,0.007,270.0
2023-08-02T08:43:03,42.805,6.029,-0.017,0.005,-0.033,104.0,102.0,100.0,13.4,1505.2,326.5,-0.8,1.8,2471.436,13.29,0.017,286.4
2023-08-02T08:46:03,42.805,6.029,0.013,0.027,-0.015,102.0,103.0,101.0,13.4,1505.2,325.5,-0.7,1.8,2471.405,13.29,0.029,25.7
2023-08-02T08:49:03,42.805,6.029,-0.025,0.019,-0.002,103.0,104.0,99.0,13.3,1505.2,335.7,-0.8,1.8,2471.413,13.29,0.031,307.2
2023-08-02T08:52:03,42.805,6.029,-0.003,0.018,-0.049,103.0,102.0,101.0,13.3,1505.2,349.3,-0.8,1.8,2471.44,13.29,0.018,350.5
2023-08-02T08:55:03,42.805,6.029,-0.002,0.003,-0.032,102.0,101.0,101.0,13.4,1505.2,326.9,-0.8,1.8,2471.427,13.29,0.003,326.3
2023-08-02T08:58:03,42.805,6.029,0.001,0.011,-0.025,103.0,100.0,103.0,13.4,1505.2,327.8,-0.8,1.8,2471.408,13.29,0.011,5.2
2023-08-02T09:04:03,42.805,6.029,0.004,0.005,-0.002,102.0,102.0,101.0,13.4,1505.2,334.8,-0.7,1.8,2471.444,13.29,0.006,38.7
2023-08-02T09:07:03,42.805,6.029,-0.01,0.015,-0.003,102.0,102.0,102.0,13.4,1505.2,341.9,-0.7,1.8,2471.414,13.29,0.018,326.3
2023-08-02T09:10:03,42.805,6.029,-0.021,0.032,-0.05,104.0,102.0,102.0,13.4,1505.2,334.5,-0.8,1.8,2471.447,13.29,0.038,326.7
2023-08-02T09:13:03,42.805,6.029,-0.009,0.027,-0.014,102.0,102.0,102.0,13.4,1505.2,352.8,-0.7,1.8,2471.412,13.29,0.028,341.6
2023-08-02T09:16:03,42.805,6.029,-0.018,0.032,-0.008,102.0,102.0,101.0,13.3,1505.2,339.7,-0.8,1.8,2471.446,13.29,0.036,330.6
2023-08-02T09:19:03,42.805,6.029,-0.024,0.031,0.017,103.0,102.0,101.0,13.4,1505.2,339.3,-0.8,1.8,2471.405,13.29,0.039,322.3
2023-08-02T09:22:03,42.805,6.029,-0.017,0.03,-0.028,101.0,102.0,101.0,13.4,1505.2,342.6,-0.8,1.8,2471.398,13.29,0.034,330.5
2023-08-02T09:25:03,42.805,6.029,-0.038,0.044,0.013,103.0,102.0,101.0,13.4,1505.2,333.9,-0.7,1.8,2471.404,13.29,0.058,319.2
2023-08-02T09:28:03,42.805,6.029,0.007,0.011,-0.041,102.0,101.0,103.0,13.4,1505.2,338.0,-0.8,1.8,2471.418,13.29,0.013,32.5
2023-08-02T09:31:03,42.805,6.029,0.005,0.011,0.014,101.0,102.0,101.0,13.4,1505.2,333.4,-0.8,1.8,2471.395,13.29,0.012,24.4
2023-08-02T09:34:03,42.805,6.029,0.002,0.012,-0.014,101.0,102.0,100.0,13.4,1505.2,349.9,-0.7,1.8,2471.438,13.29,0.012,9.5
2023-08-02T09:37:03,42.805,6.029,0.013,0.021,-0.022,103.0,102.0,101.0,13.4,1505.2,353.1,-0.8,1.8,2471.404,13.29,0.024,31.8
2023-08-02T09:40:03,42.805,6.029,-0.004,0.036,-0.021,103.0,102.0,101.0,13.4,1505.2,347.0,-0.8,1.8,2471.386,13.29,0.036,353.7
2023-08-02T09:43:03,42.805,6.029,-0.002,0.005,-0.027,102.0,102.0,101.0,13.4,1505.2,337.7,-0.8,1.8,2471.394,13.29,0.005,338.2
2023-08-02T09:46:03,42.805,6.029,-0.012,0.032,-0.01,103.0,104.0,101.0,13.4,1505.2,344.6,-0.8,1.8,2471.399,13.29,0.034,339.4
2023-08-02T09:49:03,42.805,6.029,0.0,0.02,-0.004,102.0,101.0,101.0,13.4,1505.2,340.2,-0.8,1.8,2471.414,13.29,0.02,0.0
2023-08-02T09:52:03,42.805,6.029,-0.005,0.023,0.004,101.0,102.0,101.0,13.4,1505.2,347.2,-0.8,1.8,2471.407,13.29,0.023,347.7
2023-08-02T09:55:03,42.805,6.029,0.004,0.033,-0.024,103.0,102.0,101.0,13.4,1505.2,323.6,-0.8,1.8,2471.376,13.29,0.033,6.9
2023-08-02T09:58:03,42.805,6.029,-0.027,0.028,-0.047,102.0,104.0,100.0,13.3,1505.2,334.3,-0.8,1.8,2471.37,13.29,0.038,316.0